Content
SEND FEEDBACK

Daily
Averages
Monthly
Summary
United States of America

TRES PIEDRAS, NEW MEXICO


Home > North America > United States > New Mexico
Elevation: 8146 feet     Latitude: 36 39N     Longitude: 105 58W

WEATHER
 
SELECT A DAY
Number of Records: 447,317;   Date Range: 1/1/95 - 9/22/14
 
SHARE

PRINT THIS DATA

[ ← Previous Day ]
WEATHER ALMANAC - JANUARY 31, 2013
[ Next Day → ]
[ °C ]   °F
Weather ElementAverageHighLow
Temperature24.7 °F39.2 °F (1:55 pm)10.4 °F (4:15 am)
Dewpoint15.6 °F21.2 °F (11:15 am)6.8 °F (2:55 am)
Humidity70.5 %92 % (4:35 am)45 % (1:55 pm)
Barometer30.22 in30.28 in (9:55 am)30.15 in (2:35 am)
Wind Speed6.2 mph12.7 mph (10:55 am)
Weather ElementAverage
Visibility10 mi
Wind DirectionESE (126.1 °)

Weather ElementTotal
Precipitation0.01 in
Heating Degree Days40.2 (Base 65)
Averaged from 67 records on January 31, 2013
WEATHER CONDITIONS BREAKOUT
WIND DIRECTION BREAKOUT
WEATHER BY HOUR - JANUARY 31, 2013
[ °C ]   °F
Local TimeTemperatureDewpointHumidityBarometerVisibilityWind DirectionWind SpeedGust SpeedPrecipitationEventsConditions
12:35 AM21.2 °F15.8 °F80 %30.16 in10.0 miCalmOvercast
12:55 AM24.8 °F15.8 °F69 %30.16 in10.0 miCalmOvercast
1:15 AM19.4 °F12.2 °F74 %30.16 in10.0 miCalmOvercast
1:35 AM15.8 °F10.4 °F79 %30.16 in10.0 miEast (80°)3.5 mphMostly Cloudy
1:55 AM15.8 °F8.6 °F73 %30.16 in10.0 miCalmPartly Cloudy
2:15 AM14.0 °F10.4 °F86 %30.16 in10.0 miEast (100°)4.6 mphClear
2:35 AM12.2 °F8.6 °F85 %30.15 in10.0 miEast (100°)5.8 mphClear
2:55 AM12.2 °F6.8 °F79 %30.16 in10.0 miESE (120°)3.5 mphClear
3:15 AM14.0 °F8.6 °F79 %30.15 in10.0 miESE (110°)5.8 mphClear
3:35 AM12.2 °F6.8 °F79 %30.15 in10.0 miESE (120°)6.9 mphClear
3:55 AM12.2 °F8.6 °F85 %30.16 in10.0 miSE (130°)6.9 mphClear
4:15 AM10.4 °F6.8 °F85 %30.16 in10.0 miSE (130°)6.9 mphClear
4:35 AM10.4 °F8.6 °F92 %30.16 in10.0 miESE (120°)9.2 mphClear
4:55 AM10.4 °F8.6 °F92 %30.16 in10.0 miESE (120°)9.2 mphClear
5:15 AM10.4 °F8.6 °F92 %30.16 in10.0 miESE (120°)6.9 mphClear
5:35 AM10.4 °F6.8 °F85 %30.17 in10.0 miEast (90°)9.2 mphClear
5:55 AM12.2 °F10.4 °F92 %30.17 in10.0 miEast (90°)8.1 mphClear
6:15 AM15.8 °F12.2 °F86 %30.19 in10.0 miEast (80°)5.8 mphClear
6:35 AM12.2 °F8.6 °F85 %30.20 in10.0 miENE (70°)8.1 mphClear
6:55 AM10.4 °F6.8 °F85 %30.20 in10.0 miEast (90°)4.6 mphClear
7:15 AM10.4 °F8.6 °F92 %30.22 in10.0 miEast (90°)5.8 mphClear
7:35 AM12.2 °F6.8 °F79 %30.22 in10.0 miESE (110°)6.9 mphClear
7:55 AM15.8 °F10.4 °F79 %30.22 in10.0 miESE (110°)4.6 mphClear
8:15 AM19.4 °F12.2 °F74 %30.23 in10.0 miCalmClear
8:35 AM23.0 °F15.8 °F74 %30.24 in10.0 miCalmClear
8:55 AM24.8 °F17.6 °F74 %30.25 in10.0 miSSE (160°)3.5 mphClear
9:15 AM26.6 °F19.4 °F74 %30.26 in10.0 miSSW (210°)3.5 mphClear
9:35 AM28.4 °F19.4 °F69 %30.27 in10.0 miSW (230°)3.5 mphClear
9:55 AM30.2 °F19.4 °F64 %30.28 in10.0 miWSW (250°)3.5 mphClear
10:15 AM32.0 °F19.4 °F60 %30.27 in10.0 miSSW (210°)10.4 mphClear
10:35 AM32.0 °F19.4 °F60 %30.27 in10.0 miSSW (210°)9.2 mphClear
10:55 AM33.8 °F19.4 °F56 %30.27 in10.0 miSW (220°)12.7 mphClear
11:15 AM33.8 °F21.2 °F60 %30.27 in10.0 miSW (230°)12.7 mphClear
11:35 AM33.8 °F21.2 °F60 %30.27 in10.0 miSW (230°)11.5 mphClear
11:55 AM35.6 °F21.2 °F56 %30.26 in10.0 miSSW (210°)9.2 mphClear
12:15 PM35.6 °F21.2 °F56 %30.25 in10.0 miSSW (210°)8.1 mphClear
12:35 PM35.6 °F21.2 °F56 %30.24 in10.0 miSW (220°)8.1 mphClear
12:55 PM37.4 °F21.2 °F52 %30.23 in10.0 miSouth (190°)4.6 mphClear
1:15 PM37.4 °F21.2 °F52 %30.22 in10.0 miSouth (170°)5.8 mphClear
1:35 PM37.4 °F21.2 °F52 %30.21 in10.0 miSE (140°)4.6 mphClear
1:55 PM39.2 °F19.4 °F45 %30.20 in10.0 miSE (140°)4.6 mphClear
2:15 PM39.2 °F21.2 °F49 %30.21 in10.0 miEast (80°)4.6 mphClear
2:35 PM39.2 °F21.2 °F49 %30.21 in10.0 miESE (110°)4.6 mphClear
2:55 PM39.2 °F21.2 °F49 %30.21 in10.0 miESE (110°)3.5 mphClear
3:15 PM39.2 °F21.2 °F49 %30.22 in10.0 miSSE (150°)5.8 mphClear
3:35 PM39.2 °F19.4 °F45 %30.23 in10.0 miCalmClear
3:55 PM39.2 °F19.4 °F45 %30.23 in10.0 miWSW (240°)9.2 mph0.01 inClear
4:15 PM39.2 °F19.4 °F45 %30.24 in10.0 miSSW (200°)6.9 mphClear
4:35 PM39.2 °F19.4 °F45 %30.24 in10.0 miSW (220°)11.5 mphClear
4:55 PM37.4 °F19.4 °F48 %30.24 in10.0 miSSW (210°)8.1 mphClear
5:15 PM37.4 °F19.4 °F48 %30.24 in10.0 miSSW (210°)4.6 mphClear
5:35 PM33.8 °F19.4 °F56 %30.25 in10.0 miSSE (160°)5.8 mphClear
6:15 PM26.6 °F19.4 °F74 %30.26 in10.0 miSE (140°)3.5 mphClear
6:35 PM26.6 °F17.6 °F69 %30.27 in10.0 miESE (120°)6.9 mphClear
6:55 PM26.6 °F19.4 °F74 %30.26 in10.0 miENE (70°)8.1 mphClear
7:15 PM26.6 °F19.4 °F74 %30.26 in10.0 miENE (60°)6.9 mphClear
7:35 PM26.6 °F19.4 °F74 %30.26 in10.0 miEast (80°)9.2 mphClear
8:15 PM24.8 °F17.6 °F74 %30.26 in10.0 miSE (130°)8.1 mphClear
8:35 PM23.0 °F17.6 °F80 %30.26 in10.0 miEast (100°)6.9 mphClear
8:55 PM21.2 °F15.8 °F80 %30.26 in10.0 miEast (100°)6.9 mphClear
9:15 PM21.2 °F17.6 °F86 %30.25 in10.0 miSE (130°)9.2 mphClear
9:35 PM21.2 °F17.6 °F86 %30.25 in10.0 miESE (120°)8.1 mphClear
9:55 PM21.2 °F15.8 °F80 %30.27 in10.0 miEast (90°)8.1 mphClear
10:15 PM19.4 °F15.8 °F86 %30.27 in10.0 miESE (120°)6.9 mphClear
10:35 PM19.4 °F15.8 °F86 %30.27 in10.0 miESE (120°)8.1 mphClear
11:15 PM21.2 °F17.6 °F86 %30.28 in10.0 miEast (80°)9.2 mphClear
11:35 PM19.4 °F14.0 °F80 %30.28 in10.0 miEast (90°)6.9 mphClear
Hourly data recorded from KSKX, located miles away from Tres Piedras, New Mexico







STORIES FROM OUR PARTNERS